Location: Bacharowice
(49.9333°N, 19.5833°E)
Time: 03:56:17
(UTC+00:00)

MOS 1-B Rocket - Pass Details

Date: 11 May 2021
Orbit: 890 x 1606 km, 99.0° (Epoch: 22 June)

Event Time Altitude Azimuth Distance (km) Brightness Sun altitude
Rises 18:51:37 0° 14° (NNE) 4,431 7.7 -5.7°
Reaches altitude 10° 18:54:32 10° 15° (NNE) 3,356 7.1 -6.1°
Maximum altitude 19:02:14 87° 287° (WNW) 1,171 4.5 -7.0°
Drops below altitude 10° 19:08:41 10° 200° (SSW) 2,842 6.2 -7.8°
Sets 19:11:00 0° 200° (SSW) 3,717 6.8 -8.1°
